Content
SEND FEEDBACK

Daily
Averages
Monthly
Summary
United States of America

BAYSIDE, NEW YORK


Home > North America > United States > New York
Elevation: 11 feet     Latitude: 40 46N     Longitude: 073 54W

WEATHER
 
SELECT A DAY
Number of Records: 191,103;   Date Range: 1/1/95 - 7/29/14
 
SHARE

PRINT THIS DATA

[ ← Previous Day ]
WEATHER ALMANAC - APRIL 20, 2013
[ Next Day → ]
[ °C ]   °F
Weather ElementAverageHighLow
Temperature54.5 °F62.1 °F (12:51 am)48 °F (11:51 pm)
Dewpoint32.4 °F54 °F (12:51 am)21 °F (6:51 pm)
Humidity46.6 %77 % (1:00 am)24 % (4:51 pm)
Barometer29.94 in30.28 in (11:51 pm)29.69 in (12:51 am)
Wind Speed16.7 mph20.7 mph (9:51 am)
Wind Gust31.1 mph (9:51 am)
Weather ElementAverage
Visibility10 mi
Wind DirectionWNW (283.5 °)

Weather ElementTotal
Precipitation0.07 in
Heating Degree Days10 (Base 65)
Growing Degree Days5.1 (Base 50)
Averaged from 26 records on April 20, 2013
WEATHER CONDITIONS BREAKOUT
WIND DIRECTION BREAKOUT
WEATHER BY HOUR - APRIL 20, 2013
[ °C ]   °F
Local TimeTemperatureDewpointHumidityBarometerVisibilityWind DirectionWind SpeedGust SpeedPrecipitationEventsConditions
12:51 AM62.1 °F54.0 °F75 %29.69 in10.0 miWNW (300°)15.0 mph28.8 mph0.01 inRainLight Rain
1:00 AM60.8 °F53.6 °F77 %29.70 in10.0 miNW (310°)18.4 mph24.2 mph0.00 inRainLight Rain
1:26 AM55.4 °F46.4 °F72 %29.70 in10.0 miNW (310°)13.8 mph0.00 inRainLight Rain
1:51 AM57.0 °F42.1 °F57 %29.72 in10.0 miWNW (290°)17.3 mph26.5 mph0.00 inRainLight Rain
2:51 AM54.0 °F43.0 °F66 %29.73 in10.0 miWest (270°)12.7 mph21.9 mph0.00 inRainLight Rain
3:51 AM52.0 °F45.0 °F77 %29.74 in10.0 miWest (280°)15.0 mph19.6 mph0.05 inRainLight Rain
4:51 AM53.1 °F46.0 °F77 %29.76 in10.0 miWest (270°)12.7 mph21.9 mph0.00 inOvercast
5:51 AM52.0 °F42.1 °F69 %29.82 in10.0 miWest (280°)16.1 mph25.3 mph0.01 inRainLight Rain
6:51 AM51.1 °F39.0 °F63 %29.86 in10.0 miWNW (290°)13.8 mph0.00 inOvercast
7:51 AM52.0 °F39.0 °F61 %29.88 in10.0 miWest (260°)13.8 mph20.7 mphOvercast
8:51 AM52.0 °F32.0 °F47 %29.88 in10.0 miWest (270°)19.6 mph27.6 mphOvercast
9:51 AM52.0 °F28.0 °F40 %29.92 in10.0 miWNW (290°)20.7 mph31.1 mphMostly Cloudy
10:51 AM53.1 °F24.1 °F32 %29.96 in10.0 miWest (270°)20.7 mph28.8 mphMostly Cloudy
11:51 AM52.0 °F24.1 °F34 %29.98 in10.0 miWest (280°)18.4 mph29.9 mphMostly Cloudy
12:51 PM52.0 °F25.0 °F35 %29.97 in10.0 miWest (270°)18.4 mph26.5 mphMostly Cloudy
1:51 PM54.0 °F27.0 °F35 %29.97 in10.0 miWest (280°)18.4 mph24.2 mphMostly Cloudy
2:51 PM57.0 °F25.0 °F29 %29.97 in10.0 miWest (280°)15.0 mphMostly Cloudy
3:51 PM57.9 °F23.0 °F26 %29.98 in10.0 miWest (270°)20.7 mph31.1 mphMostly Cloudy
4:51 PM59.0 °F21.9 °F24 %30.00 in10.0 miWest (270°)13.8 mph26.5 mphMostly Cloudy
5:51 PM59.0 °F21.9 °F24 %30.04 in10.0 miWest (270°)10.4 mph23.0 mphMostly Cloudy
6:51 PM57.9 °F21.0 °F24 %30.06 in10.0 miWSW (250°)19.6 mph23.0 mphMostly Cloudy
7:51 PM55.9 °F21.0 °F26 %30.11 in10.0 miWest (260°)13.8 mph23.0 mphMostly Cloudy
8:51 PM55.0 °F21.9 °F28 %30.15 in10.0 miWest (270°)15.0 mph24.2 mphMostly Cloudy
9:51 PM53.1 °F25.0 °F34 %30.21 in10.0 miNNW (330°)20.7 mph26.5 mphMostly Cloudy
10:51 PM50.0 °F25.0 °F38 %30.25 in10.0 miNNW (330°)19.6 mph24.2 mphScattered Clouds
11:51 PM48.0 °F25.0 °F41 %30.28 in10.0 miNW (320°)20.7 mph31.1 mphScattered Clouds
Hourly data recorded from KLGA, located miles away from Bayside, New York







STORIES FROM OUR PARTNERS